San Francisco, CA

6:48 PM PDT on April 26, 2015 (GMT -0700)
San Francisco International | | Change Station
CLOSE
Current Station
Airport
Location: San Francisco,
Elevation: 16 ft
Nearby Weather Stations

Elev 16 ft 37.62 °N, 122.37 °W | Updated 52 minutes ago

Partly Cloudy
Partly Cloudy
61 °F
Feels Like 61 °F
N
26
Wind Variable Wind from West
Gusts 34 mph

Today
High -- | Low -- °F
--% Chance of Precip.
Yesterday
High -- | Low -- °F
Precip. -- in
6:20 AM 7:54 PM
First Quarter, 60% visible
Pressure 30.09 in
Visibility 10.0 miles
Clouds Few 1500 ft
Scattered Clouds 20000 ft
Dew Point 49 °F
Humidity 64%
Rainfall 0.00 in
Snow Depth Not available.
UV 1 out of 12
Pollen 8.10 out of 12
Air Quality Not available.
Flu Activity Sporadic
METAR KSFO 270056Z 27023G30KT 10SM FEW015 SCT200 16/09 A3009 RMK AO2 PK WND 28030/0050 SLP187 T01610094

More Conditions Fewer Conditions

Pressure 30.09 in
Visibility 10.0 miles
Clouds Few 1500 ft
Scattered Clouds 20000 ft
Dew Point 49 °F
Humidity 64%
Rainfall 0.00 in
Snow Depth Not available.
UV 1 out of 12
Pollen 8.10 out of 12
Air Quality Not available.
Flu Activity Sporadic
METAR KSFO 270056Z 27023G30KT 10SM FEW015 SCT200 16/09 A3009 RMK AO2 PK WND 28030/0050 SLP187 T01610094

More Conditions Fewer Conditions

The full scope of the disaster following a powerful 7.8-magnitude earthquake in Nepal may not come into view for days, but global charities are already sending emergency aid. Click to see how you can help.

10-Day Weather Forecast

Almanac

Astronomy

Apr. 26, 2015 Rise Set
Actual Time
Civil Twilight
Nautical Twilight
Astronomical Twilight
Moon
Length of Visible Light
Length of Day
Tomorrow will be .
, % of the Moon is Illuminated

Today's Extremes

State Highs State Lows

Community

WunderPhotos

Upload Photos

1,817,202 photos uploaded!

WunderBlogs® & News

Nearby

Air Quality

  Air Quality AQ Index Pollutant
Not available.

Snow Depth

Station Depth Elevation

Earthquake Activity

City Distance Mag. Time & Date
Minimum magnitude displayed is 2.5.

Coastal Water Temperatures

Place Temperature

Stations

Nearby Weather Stations

Station Location Temp. Windchill Dew Point Humidity Wind Precip. Elev Updated Type